When you browse on this site, cookies collect data to enhance your experience and personalize the content and advertising you see.
Visit our Privacy Policy to learn more. By continuing to use the site, you agree to this use of cookies and data.

Hourly Weather Vyshegorod

Today, 7 August, Friday

Time Temperature Precipitation Wind Pressure Humidity
00:00 +15°C° 0 mm 1 mps 749 mmHg 90%
01:00 +14°C° 0 mm 1 mps 749 mmHg 92%
02:00 +14°C° 0 mm 1 mps 749 mmHg 93%
03:00 +14°C° 0 mm 1 mps 749 mmHg 92%
04:00 +14°C° 0 mm 1 mps 749 mmHg 92%
05:00 +14°C° 0 mm 1 mps 749 mmHg 91%
06:00 +16°C° 0 mm 1 mps 749 mmHg 83%
07:00 +19°C° 0 mm 1 mps 750 mmHg 75%
08:00 +21°C° 0 mm 1 mps 750 mmHg 68%
09:00 +22°C° 0 mm 1 mps 750 mmHg 64%
10:00 +23°C° 0 mm 1 mps 750 mmHg 60%
11:00 +24°C° 0 mm 1 mps 749 mmHg 56%
12:00 +24°C° 0 mm 1 mps 749 mmHg 59%
13:00 +23°C° 0 mm 2 mps 749 mmHg 62%
14:00 +23°C° 0 mm 2 mps 749 mmHg 65%
15:00 +23°C° 0.1 mm 2 mps 749 mmHg 68%
16:00 +22°C° 0.1 mm 1 mps 749 mmHg 71%
17:00 +22°C° 0.1 mm 1 mps 748 mmHg 74%
18:00 +21°C° 0 mm 1 mps 748 mmHg 80%
19:00 +19°C° 0 mm 1 mps 748 mmHg 85%
20:00 +18°C° 0 mm 1 mps 748 mmHg 91%
21:00 +16°C° 0 mm 1 mps 748 mmHg 93%
22:00 +16°C° 0 mm 1 mps 748 mmHg 94%
23:00 +15°C° 0 mm 1 mps 748 mmHg 95%

Tomorrow, 8 August, Saturday

Time Temperature Precipitation Wind Pressure Humidity
00:00 +15°C° 0 mm 1 mps 748 mmHg 95%
01:00 +15°C° 0 mm 1 mps 748 mmHg 96%
02:00 +15°C° 0 mm 1 mps 748 mmHg 96%
03:00 +15°C° 0 mm 1 mps 748 mmHg 96%
04:00 +15°C° 0 mm 1 mps 748 mmHg 96%
05:00 +15°C° 0 mm 1 mps 748 mmHg 96%
06:00 +18°C° 0 mm 1 mps 748 mmHg 88%
07:00 +20°C° 0 mm 1 mps 748 mmHg 81%
08:00 +21°C° 0 mm 1 mps 748 mmHg 73%
09:00 +21°C° 0.1 mm 2 mps 748 mmHg 71%
10:00 +23°C° 0.1 mm 2 mps 748 mmHg 69%
11:00 +24°C° 0.1 mm 2 mps 747 mmHg 66%
12:00 +25°C° 0.1 mm 2 mps 747 mmHg 63%
13:00 +26°C° 0.1 mm 3 mps 747 mmHg 60%
14:00 +26°C° 0.1 mm 3 mps 746 mmHg 57%
15:00 +26°C° 0.1 mm 3 mps 746 mmHg 59%
16:00 +26°C° 0.1 mm 2 mps 745 mmHg 62%
17:00 +25°C° 0.1 mm 2 mps 745 mmHg 64%
18:00 +23°C° 0 mm 2 mps 745 mmHg 72%
19:00 +20°C° 0 mm 2 mps 745 mmHg 79%
20:00 +19°C° 0 mm 1 mps 745 mmHg 87%
21:00 +19°C° 0 mm 1 mps 745 mmHg 89%
22:00 +18°C° 0 mm 1 mps 745 mmHg 91%
23:00 +16°C° 0 mm 1 mps 745 mmHg 93%

Day after tomorrow, 9 August, Sunday

Time Temperature Precipitation Wind Pressure Humidity
00:00 +16°C° 0 mm 1 mps 745 mmHg 94%
01:00 +16°C° 0 mm 1 mps 745 mmHg 94%
02:00 +15°C° 0 mm 1 mps 745 mmHg 95%
03:00 +15°C° 0 mm 1 mps 744 mmHg 95%
04:00 +15°C° 0 mm 1 mps 744 mmHg 95%
05:00 +15°C° 0 mm 1 mps 744 mmHg 95%
06:00 +18°C° 0.1 mm 1 mps 744 mmHg 89%
07:00 +19°C° 0.1 mm 2 mps 744 mmHg 83%
08:00 +21°C° 0.1 mm 2 mps 744 mmHg 76%
09:00 +23°C° 0.5 mm 2 mps 744 mmHg 75%
10:00 +24°C° 0.5 mm 2 mps 744 mmHg 73%
11:00 +24°C° 0.5 mm 2 mps 743 mmHg 71%
12:00 +25°C° 0.7 mm 2 mps 743 mmHg 72%
13:00 +25°C° 0.7 mm 2 mps 743 mmHg 72%
14:00 +25°C° 0.7 mm 3 mps 743 mmHg 73%
15:00 +25°C° 0.4 mm 3 mps 743 mmHg 73%
16:00 +24°C° 0.4 mm 3 mps 742 mmHg 73%
17:00 +24°C° 0.4 mm 2 mps 742 mmHg 73%
18:00 +21°C° 0.1 mm 2 mps 742 mmHg 79%
19:00 +20°C° 0.1 mm 2 mps 742 mmHg 85%
20:00 +19°C° 0.1 mm 1 mps 742 mmHg 91%
21:00 +19°C° 0 mm 1 mps 742 mmHg 93%
22:00 +18°C° 0 mm 1 mps 742 mmHg 94%
23:00 +16°C° 0 mm 1 mps 742 mmHg 95%

10 August, Monday

Time Temperature Precipitation Wind Pressure Humidity
00:00 +16°C° 0 mm 1 mps 742 mmHg 95%
01:00 +16°C° 0 mm 1 mps 742 mmHg 95%
02:00 +14°C° 0 mm 0 mps 742 mmHg 95%
03:00 +14°C° 0 mm 0 mps 742 mmHg 95%
04:00 +14°C° 0 mm 0 mps 742 mmHg 95%
05:00 +14°C° 0 mm 0 mps 742 mmHg 95%
06:00 +16°C° 0 mm 0 mps 742 mmHg 87%
07:00 +20°C° 0 mm 1 mps 742 mmHg 80%
08:00 +23°C° 0 mm 1 mps 742 mmHg 73%
09:00 +24°C° 0.1 mm 1 mps 742 mmHg 66%
10:00 +25°C° 0.1 mm 1 mps 742 mmHg 59%
11:00 +27°C° 0.1 mm 2 mps 742 mmHg 52%
12:00 +27°C° 0.5 mm 2 mps 741 mmHg 56%
13:00 +26°C° 0.5 mm 2 mps 741 mmHg 60%
14:00 +26°C° 0.5 mm 2 mps 741 mmHg 63%
15:00 +26°C° 0.4 mm 2 mps 741 mmHg 68%
16:00 +25°C° 0.4 mm 2 mps 740 mmHg 72%
17:00 +25°C° 0.4 mm 2 mps 740 mmHg 76%
18:00 +23°C° 0.3 mm 2 mps 740 mmHg 82%
19:00 +21°C° 0.3 mm 1 mps 740 mmHg 87%
20:00 +19°C° 0.3 mm 1 mps 740 mmHg 93%
21:00 +18°C° 0 mm 1 mps 740 mmHg 94%
22:00 +17°C° 0 mm 2 mps 740 mmHg 95%
23:00 +16°C° 0 mm 2 mps 740 mmHg 96%

11 August, Tuesday

Time Temperature Precipitation Wind Pressure Humidity
00:00 +15°C° 0 mm 2 mps 740 mmHg 97%
01:00 +14°C° 0 mm 2 mps 740 mmHg 97%
02:00 +14°C° 0 mm 2 mps 740 mmHg 98%
03:00 +13°C° 0 mm 2 mps 740 mmHg 98%
04:00 +12°C° 0 mm 2 mps 740 mmHg 98%
05:00 +12°C° 0 mm 2 mps 740 mmHg 97%
06:00 +13°C° 0 mm 2 mps 740 mmHg 91%
07:00 +13°C° 0 mm 3 mps 741 mmHg 85%
08:00 +16°C° 0 mm 3 mps 741 mmHg 79%
09:00 +17°C° 0 mm 3 mps 741 mmHg 72%
10:00 +17°C° 0 mm 3 mps 741 mmHg 65%
11:00 +18°C° 0 mm 4 mps 741 mmHg 59%
12:00 +18°C° 0 mm 4 mps 740 mmHg 61%
13:00 +18°C° 0 mm 4 mps 740 mmHg 63%
14:00 +18°C° 0 mm 4 mps 740 mmHg 66%
15:00 +17°C° 0.1 mm 4 mps 740 mmHg 69%
16:00 +17°C° 0.1 mm 3 mps 740 mmHg 73%
17:00 +16°C° 0.1 mm 3 mps 740 mmHg 77%
18:00 +14°C° 0.1 mm 3 mps 740 mmHg 83%
19:00 +14°C° 0.1 mm 2 mps 739 mmHg 89%
20:00 +13°C° 0.1 mm 2 mps 739 mmHg 96%
21:00 +13°C° 0.1 mm 2 mps 739 mmHg 96%
22:00 +13°C° 0.1 mm 2 mps 739 mmHg 97%
23:00 +12°C° 0.1 mm 3 mps 739 mmHg 97%

12 August, Wednesday

Time Temperature Precipitation Wind Pressure Humidity
00:00 +12°C° 0.2 mm 3 mps 740 mmHg 97%
01:00 +12°C° 0.2 mm 3 mps 740 mmHg 97%
02:00 +13°C° 0.2 mm 4 mps 740 mmHg 96%
03:00 +12°C° 0.1 mm 4 mps 740 mmHg 96%
04:00 +12°C° 0.1 mm 4 mps 740 mmHg 96%
05:00 +11°C° 0.1 mm 4 mps 740 mmHg 96%
06:00 +11°C° 0.1 mm 4 mps 741 mmHg 96%
07:00 +11°C° 0.1 mm 4 mps 741 mmHg 95%
08:00 +12°C° 0.1 mm 4 mps 741 mmHg 95%
09:00 +12°C° 0 mm 4 mps 742 mmHg 90%
10:00 +13°C° 0 mm 3 mps 742 mmHg 85%
11:00 +14°C° 0 mm 3 mps 742 mmHg 79%
12:00 +15°C° 0.1 mm 4 mps 742 mmHg 75%
13:00 +17°C° 0.1 mm 4 mps 742 mmHg 70%
14:00 +18°C° 0.1 mm 4 mps 742 mmHg 65%
15:00 +17°C° 0.1 mm 4 mps 742 mmHg 67%
16:00 +16°C° 0.1 mm 3 mps 742 mmHg 69%
17:00 +14°C° 0.1 mm 3 mps 743 mmHg 71%
18:00 +13°C° 0 mm 3 mps 743 mmHg 76%
19:00 +13°C° 0 mm 2 mps 743 mmHg 81%
20:00 +12°C° 0 mm 2 mps 743 mmHg 86%
21:00 +10°C° 0 mm 2 mps 743 mmHg 88%
22:00 +9°C° 0 mm 2 mps 743 mmHg 89%
23:00 +8°C° 0 mm 2 mps 743 mmHg 91%
Show more